Regional Weather Roundup
Issued by NWS

Home | Current Version | Previous Version | Graphics & Text | Print | Product List | Glossary Off
Versions: 1 2 3 4 5 6 7 8 9 10 11 12 13 14 15 16 17 18 19 20 21 22 23 24 25 26 27 28 29 30 31 32 33 34 35 36 37 38 39 40 41 42 43 44 45 46 47 48 49 50

000
ASUS43 KMKX 241511
RWRWI

WISCONSIN REGIONAL WEATHER ROUNDUP
NATIONAL WEATHER SERVICE MILWAUKEE/SULLIVAN WI
1000 AM CDT SUN JUL 24 2016

NOTE: "FAIR" INDICATES FEW OR NO CLOUDS BELOW 12,000 FEET WITH NO
SIGNIFICANT WEATHER AND/OR OBSTRUCTIONS TO VISIBILITY.

WIZ001-002-006>008-014>016-023>028-241600-
NORTHWEST WISCONSIN

CITY           SKY/WX    TMP DP  RH WIND       PRES   REMARKS
SUPERIOR ARPT  MOSUNNY   75  68  80 W9        29.79R
ASHLAND        MOSUNNY   77  68  73 W12       29.77S
HAYWARD        CLOUDY    73  67  81 W7        29.82R
SIREN          PTSUNNY   75  66  73 NW10      29.83R
CUMBERLAND     MOSUNNY   73  66  78 NW13G18   29.84R
RICE LAKE      PTSUNNY   75  69  80 W8        29.85R
CHETEK         MOSUNNY   77  71  83 W6        29.83R
LADYSMITH      CLOUDY    74  70  86 SW5       29.84R
EAU CLAIRE     PTSUNNY   77  72  84 W10       29.81R
MENOMONIE      MOSUNNY   76  76  99 W8        29.83R
NEW RICHMOND   MOSUNNY   79  67  68 W9        29.84S HX  81
OSCEOLA        MOSUNNY   78  69  73 W8        29.86S HX  80
$$

WIZ003>005-009-010-017-018-241600-
NORTH CENTRAL WISCONSIN

CITY           SKY/WX    TMP DP  RH WIND       PRES   REMARKS
MANITOWISH WTR CLOUDY    73  70  91 SW7       29.81S
ARBOR VITAE    CLOUDY    72  69  89 W6        29.82S
WOODRUFF       CLOUDY    72  69  89 W6        29.82S
RHINELANDER    CLOUDY    72  70  93 W5        29.83S FOG
EAGLE RIVER    CLOUDY    74  67  78 SW7       29.82R
LAND O LAKES   PTSUNNY   76  67  76 SW7       29.82S
PHILLIPS       CLOUDY    72  70  93 W5        29.82R
TOMAHAWK       CLOUDY    71  69  95 CALM      29.83S
MEDFORD        FOG       71  71 100 W5        29.83R VSB 1/2
MERRILL        CLOUDY    73  73 100 W3        29.82R FOG
$$

WIZ029-030-035-036-043>047-241600-
CENTRAL WISCONSIN

CITY           SKY/WX    TMP DP  RH WIND       PRES   REMARKS
WAUSAU         CLOUDY    73  72  96 SW7       29.80R FOG
MOSINEE        FOG       73  73 100 SW6       29.83R VSB 1
MARSHFIELD     CLOUDY    75  73  93 SW7       29.81R FOG
STEVENS POINT  CLOUDY    73  73 100 SW7       29.82R FOG
WAUPACA        CLOUDY    77  76  99 S3        29.81S FOG
WAUTOMA        CLOUDY    76  75  97 S5        29.82R
WISC RAPIDS    CLOUDY    78  74  87 W5        29.82R HX  81
CAMP DOUGLAS   CLOUDY    79  77  94 W8        29.81R HX  83
$$

WIZ011>013-019>022-031-037>040-048>050-241600-
NORTHEAST WISCONSIN

CITY           SKY/WX    TMP DP  RH WIND       PRES   REMARKS
ANTIGO         CLOUDY    72  72 100 CALM      29.83R
SHAWANO        CLOUDY    74  72  92 SW5       29.80F
OCONTO         CLOUDY   N/A N/A N/A S3        29.79S
STURGEON BAY   CLOUDY    72  69  90 S9G18     29.81F
GREEN BAY      CLOUDY    73  73 100 S10       29.80S
MANITOWOC      LGT RAIN  71  69  93 S16G22    29.84F
APPLETON       CLOUDY    73  73 100 SW8       29.80F
CLINTONVILLE   CLOUDY    73  72  94 SW3       29.80S
OSHKOSH        CLOUDY    78  74  87 S9        29.80F HX  81
$$

WIZ032>034-041-042-053>061-241600-
SOUTHWEST WISCONSIN

CITY           SKY/WX    TMP DP  RH WIND       PRES   REMARKS
LA CROSSE      CLOUDY    82  77  84 NW7       29.80R HX  90
SPARTA         CLOUDY    78  75  91 W7        29.82R HX  80
VIROQUA        CLOUDY    78  78  99 W5        29.85R HX  80
BOSCOBEL       PTSUNNY   85  77  77 SW7       29.82R HX  95
PRAIRIE DU CHI CLOUDY    82  76  80 W5        29.82R HX  90
PLATTEVILLE    MOSUNNY   84  81  89 SW12      29.85S HX  98
$$

WIZ056-057-062-063-064-067-068-241600-
SOUTH CENTRAL WISCONSIN

CITY           SKY/WX    TMP DP  RH WIND       PRES   REMARKS
REEDSBURG      CLOUDY   N/A N/A N/A SW10      29.82R
BARABOO/DELLS  CLOUDY    82  76  82 SW10      29.82R HX  90
LONE ROCK      CLOUDY    84  77  79 W8        29.82S HX  94
MINERAL POINT  CLOUDY    82  79  89 SW10      29.85F HX  93
MADISON        PTSUNNY   84  77  79 SW8       29.83S HX  94
MIDDLETON      PTSUNNY   85  77  77 SW7       29.83S HX  96
WATERTOWN      CLOUDY    81  78  91 SW8       29.84S HX  88
MONROE         MOSUNNY   82  77  83 SW14      29.86S HX  91
JANESVILLE     MOSUNNY   84  79  84 S14       29.85S HX  96
$$

WIZ051-052-058>065-066-070>072-241600-
SOUTHEAST WISCONSIN

CITY           SKY/WX    TMP DP  RH WIND       PRES   REMARKS
MILWAUKEE      CLOUDY    81  75  82 S14       29.84F HX  87
WAUKESHA       SUNNY     75  73  94 S7        29.86
MILWAUKEE/TIMM PTSUNNY   79  72  78 S7        29.85F HX  82
RACINE         LGT RAIN  79  74  84 S9        29.87F HX  82
BURLINGTON     CLOUDY    80  76  87 S12       29.86F HX  86
KENOSHA        CLOUDY    80  74  81 S12G20    29.87F HX  85
FOND DU LAC    CLOUDY    80  75  84 SW13      29.82F HX  85
SHEBOYGAN      CLOUDY    72  69  90 E8        29.85S THUNDER
WEST BEND      CLOUDY    77  72  83 S5        29.85S
JUNEAU         CLOUDY    78  75  90 S9        29.85S HX  81
$$

LSZ147-162-241600-
LAKE SUPERIOR

STATION/POSITION TIME  TEMP    WIND        PRES    WAVE
                       AIR SEA DIR/SP/G            HT/PER
                 (UTC) (F)     (DEG/KT/KT) (MB)    (FT/S)
W MID LAKE BUOY  1450   62 57  240/ 12/ 14 1006.0R   1
DEVILS ISLAND    1400   63     250/  9/ 10 1007.2R
PORT WING        1400   67     270/  8/ 10 1007.8
SAXON HARBOR     1440   76     230/  6/ 13 1007.5S
$$

LMZ867-665-643>646-241600-
LAKE MICHIGAN

STATION/POSITION TIME  TEMP    WIND        PRES    WAVE
                       AIR SEA DIR/SP/G            HT/PER
                 (UTC) (F)     (DEG/KT/KT) (MB)    (FT/S)
CHAMBERS ISLAND  1400   74     170/  5/ 11 1008.5F
S GREEN BAY BUOY 1400   74 74  180/ 14/ 17   N/A
N MID LAKE BUOY  1450   70 69  200/ 19/ 23 1008.0F   3/ 4
NORTHPORT PIER   1400   73     150/  7/ 12 1008.8F
KEWAUNEE LAKESHO 1400   64     190/ 11/ 14 1009.6F
SHEBOYGAN LAKESH 1500   63     150/  9/ 10 1011.4R
PORT WASHINGTON  1440   65     190/  9/ 14 1011.2F
MILWAUKEE LAKESH 1410   62     150/ 13/ 15   N/A
S MID LAKE BUOY  1450   75 72  140/ 14/ 16 1012.1F   3/ 5
KENOSHA   LAKESH 1500   70     200/  8/ 13 1010.8F
$$

TC  - TEMPERATURE IN CELSIUS
VSB - VISIBILITY IN STATUTE MILES
WCI - WIND CHILL INDEX
HX  - HEAT INDEX





USA.gov is the U.S. government's official web portal to all federal, state and local government web resources and services.